Regional Weather Roundup
Issued by NWS

Home | Current Version | Previous Version | Graphics & Text | Print | Product List | Glossary On
Versions: 1 2 3 4 5 6 7 8 9 10 11 12 13 14 15 16 17 18 19 20 21 22 23 24 25 26 27 28
000
ASUS45 KBOI 100710
RWRID

IDAHO REGIONAL WEATHER ROUNDUP
NATIONAL WEATHER SERVICE BOISE ID
1200 AM MST SAT DEC 10 2016

NOTE: "FAIR" INDICATES FEW OR NO CLOUDS BELOW 12000 FEET
WITH NO SIGNIFICANT WEATHER AND/OR OBSTRUCTIONS TO VISIBILITY

IDZ012-014-100800-
SOUTHWEST IDAHO


CITY           SKY/WX    TMP DP  RH WIND       PRES   REMARKS
BOISE          CLOUDY    31  30  96 SE3       29.97F FOG
CALDWELL       MIX PCPN  30  29  96 CALM      30.00F FOG
MOUNTAIN HOME  MIX PCPN  31  31 100 CALM      29.97F VSB 3/4
$$

IDZ016-017-100800-
SOUTHCENTRAL IDAHO


CITY           SKY/WX    TMP DP  RH WIND       PRES   REMARKS
BURLEY         LGT RAIN  37  34  89 W5        29.97S WCI  33
JEROME         LGT RAIN  35  35 100 NE9       29.97F WCI  28
TWIN FALLS     LGT RAIN  38  31  76 SW6       29.97S WCI  33
$$

IDZ019>023-100800-
SOUTHEAST IDAHO


CITY           SKY/WX    TMP DP  RH WIND       PRES   REMARKS
IDAHO FALLS    LGT SNOW  26  24  92 N5        29.98F FOG     WCI  20
POCATELLO      LGT RAIN  38  33  82 S12       29.98F WCI  30
REXBURG        LGT SNOW  26  26 100 CALM      29.96F FOG
$$

IDZ006-010-011-018-031-032-100800-
CENTRAL IDAHO MOUNTAINS


CITY           SKY/WX    TMP DP  RH WIND       PRES   REMARKS
MCCALL         LGT SNOW  32  31  96 S8        29.86F FOG     WCI  25
HAILEY         LGT SNOW  30  30 100 CALM      29.96F
STANLEY          N/A     33  31  92 VRB3      29.88F
SALMON         CLOUDY    19  18  93 CALM      29.95F
CHALLIS        FLURRIES  20  19  96 CALM      29.89F
$$

IDZ002-004-006-007-026-100800-
NORTHERN IDAHO


CITY           SKY/WX    TMP DP  RH WIND       PRES   REMARKS
LEWISTON       CLOUDY    26  22  84 S3        29.95F
LOWELL           N/A     28  25  88 CALM      30.00F
COEUR D`ALENE  LGT SNOW  18  15  88 NE13      29.93F FOG     WCI   5
MULLAN PASS    LGT SNOW  21  19  92 VRB6      29.74F FOG     WCI  13
$$




USA.gov is the U.S. government's official web portal to all federal, state and local government web resources and services.